335  
ASUS42 KCAE 271310  
RWRCAE  
REGIONAL WEATHER ROUNDUP  
NATIONAL WEATHER SERVICE COLUMBIA SC  
900 AM EDT TUE JUN 27 2017  
 
NOTE: "FAIR" INDICATES FEW OR NO CLOUDS BELOW 12,000 FEET WITH NO  
SIGNIFICANT WEATHER AND/OR S TO VISIBILITY
.  
 
NOT ALL STATIONS ARE QUALITY CONTROLLED BY THE NATIONAL  
WEATHER SERVICE. USE DATA WITH CAUTION...ESPECIALLY  
DEWPOINT OBSERVATIONS.  
 
SCZ001>056-GAZ040-063>065-077-271400-   
..UPSTATE SOUTH CAROLINA
 
 
 
CITY SKY/WX TMP DP RH WIND PRES REMARKS
 
ANDERSON SUNNY 72 59 63 N6 30.08S  
LIBERTY SUNNY 69 60 71 E5 30.08S  
SPARTANBURG SUNNY 70 55 60 N5 30.09S  
CLEMSON SUNNY 72 61 68 N3 30.09S  
GREENVILLE SUNNY 75 55 49 N13 30.10R  
GREENWOOD PTSUNNY 70 61 73 N5 30.08S  
GREER SUNNY 72 57 59 NE6 30.08S  
ROCK HILL SUNNY 74 60 61 NE8 30.09R  
CHESTER MOSUNNY 72 57 60 NE5 30.09R  
LAURENS SUNNY 72 61 68 N6 30.08S  
 
   
..CENTRAL SOUTH CAROLINA
 
 
 
CITY SKY/WX TMP DP RH WIND PRES REMARKS
 
COLUMBIA APT CLOUDY 75 65 70 CALM 30.04R  
COLUMBIA OWENS CLOUDY 75 63 66 W3 30.06R  
MCENTIRE ANGB PTSUNNY 74 66 77 VRB2 30.05R  
ORANGEBURG SUNNY N/A N/A N/A MISG 30.05S  
NEWBERRY MOSUNNY 70 64 83 N8 30.10R  
AIKEN FAIR 75 64 69 W3 30.09R  
BARNWELL FAIR 77 70 78 CALM 30.06R  
MANNING FAIR 73 70 88 W3 30.05S  
CAMDEN FAIR 75 64 69 CALM 30.06R  
LANCASTER MOSUNNY 73 63 68 N5 30.08R  
WINNSBORO MOSUNNY 73 63 68 NW6 30.06R  
 
   
..EASTERN AND COASTAL SOUTH CAROLINA
 
 
 
CITY SKY/WX TMP DP RH WIND PRES REMARKS
 
MYRTLE BEACH SUNNY 75 64 69 NW6 30.05R  
N MYRTLE BCH CLOUDY 75 65 70 CALM 30.04R  
CONWAY FAIR 72 64 78 CALM 30.05R  
MARION FAIR 73 63 68 W3 30.04F  
HARTSVILLE FAIR 75 61 60 CALM 30.05R  
FLORENCE SUNNY 76 65 68 W3 30.04S  
DARLINGTON CLOUDY 75 64 68 NW6 30.05R  
CHARLESTON APT MOSUNNY 80 67 64 CALM 30.04R  
MOUNT PLEASANT FAIR 77 70 78 CALM 30.04S  
WALTERBORO MOSUNNY 75 68 78 N3 30.06R  
BEAUFORT MOSUNNY 80 73 79 CALM 30.04R  
 
   
..EASTERN GEORGIA
 
 
 
CITY SKY/WX TMP DP RH WIND PRES REMARKS
 
AUGUSTA BUSH F SUNNY 77 68 73 CALM 30.05R  
AUGUSTA DANIEL PTSUNNY 76 61 59 NW3 30.07R  
THOMSON MOSUNNY 72 61 68 NE3 30.12R  
WASHINGTON FAIR 75 64 69 CALM 30.07S  
CLAXTON FAIR 76 73 92 CALM 30.05R  
SYLVANIA MOSUNNY 76 73 90 CALM 30.06R  
STATESBORO MOSUNNY 77 77 100 N3 30.05R  
SAVANNAH CLOUDY 78 71 79 CALM 30.05R  
 
   
..SOUTHERN NORTH CAROLINA
 
 
 
CITY SKY/WX TMP DP RH WIND PRES REMARKS
 
CHARLOTTE MOSUNNY 74 60 61 N6 30.10R  
MONROE SUNNY 73 57 57 N7 30.08R  
WADESBORO SUNNY 71 60 70 W3 30.06R  
ROCKINGHAM SUNNY 71 61 71 N3 30.05R  
ASHEVILLE SUNNY 67 51 56 N10 30.15R  
 

 
 
 
CLICK HERE TO GO TO PREVIOUS BULLETINS.

The Nexlab SC Page
The Nexlab GA Page Main Text Page